[[{"header":{"parameterUnit":"m.s-1","parameterCategory":1,"la1":30.2991,"la2":30.254,"lo1":-89.0895,"lo2":-89.0444,"dy":0.0017,"dx":0.0017,"nx":28,"ny":28,"refTime":"2024-05-24T21:00:00:Z","depth":0,"parameterNumber":2,"parameterNumberName":"U-component_of_WINDS"},"data":[0,0,0,0,0,0,0,0,0,0,0,0,0,0,0,0,0,0,0,0,0,0,0,0,0,0,0,0,0,0,0,0,0,0,0,0,0,0,0,0,0,0,0,0,0,0,0,0,0,0,0,0,0,0,0,0,0,0,-0.7858,-0.7857,0,-0.7769,-0.7768,-0.7767,-0.7734,-0.7734,-0.7735,-0.7735,-0.7641,-0.7639,-0.7636,0,0,0,0,0,0,0,0,0,0,0,0,0,-0.7998,-0.7996,-0.7858,-0.7857,-0.7856,-0.7769,-0.7768,-0.7767,-0.7734,-0.7734,-0.7735,-0.7735,-0.7642,-0.7639,-0.7636,0,0,0,0,0,0,0,0,0,0,0,0,0,-0.7926,-0.7995,-0.7858,-0.7829,-0.7825,-0.7769,-0.7768,-0.7766,-0.7734,-0.7734,-0.7735,-0.7735,-0.7643,-0.7639,-0.7635,-0.7601,0,0,-0.7623,-0.7621,0,0,0,0,0,0,0,0,-0.793,-0.7921,-0.7834,-0.7831,-0.7827,-0.7763,-0.7783,-0.7711,-0.7734,-0.7769,-0.7735,-0.7735,-0.7681,-0.7674,-0.7656,-0.7597,-0.7593,-0.7622,-0.762,-0.7618,-0.7617,0,0,0,0,0,0,0,-0.7935,-0.7924,-0.7823,-0.7833,-0.7829,-0.782,-0.781,-0.7769,-0.7723,-0.7766,-0.7763,-0.7753,-0.7679,-0.7661,-0.7654,-0.7591,-0.7622,-0.7619,-0.7616,-0.7615,-0.7499,-0.7499,0,0,0,0,0,0,-0.7945,-0.7929,-0.7825,-0.782,-0.7881,-0.7817,-0.7806,-0.7783,-0.7724,-0.7715,-0.7753,-0.7752,-0.7667,-0.7659,-0.7651,-0.7607,-0.7618,-0.7614,-0.7612,-0.75,-0.7499,-0.7499,0,0,0,0,0,0,-0.7948,-0.7936,-0.7829,-0.7874,-0.7859,-0.7814,-0.7789,-0.7781,-0.7762,-0.7714,-0.7706,-0.7742,-0.7667,-0.7656,-0.7614,-0.7603,-0.7612,-0.7609,-0.7501,-0.75,-0.7499,-0.7519,0,0,0,0,0,0,-0.7952,-0.7938,-0.7924,-0.7874,-0.7857,-0.7794,-0.7788,-0.7779,-0.7755,-0.7753,-0.7702,-0.7694,-0.7667,-0.762,-0.761,-0.7597,-0.7605,-0.7501,-0.75,-0.7499,-0.7519,-0.7519,-0.7519,0,0,0,0,0,-0.7958,-0.7933,-0.7924,-0.7912,-0.784,-0.7794,-0.7784,-0.7755,-0.7755,-0.7741,-0.771,-0.7695,-0.7606,-0.7616,-0.7604,-0.759,-0.7502,-0.7501,-0.7499,-0.7519,-0.7519,-0.7519,0,0,0,0,0,0,-0.7982,-0.7926,-0.7915,-0.7873,-0.7839,-0.7788,-0.777,-0.7755,-0.7719,-0.7719,-0.7683,-0.7672,-0.7632,-0.7607,-0.7619,-0.7554,-0.7553,-0.7549,-0.7572,-0.7571,-0.7571,-0.7578,-0.7602,0,0,0,0,0,-0.7983,-0.7951,-0.7903,-0.7871,-0.7854,-0.7815,-0.7794,-0.7774,-0.7737,-0.7722,-0.7688,-0.7652,-0.7615,-0.7592,-0.7556,-0.7516,-0.7504,-0.75,-0.75,-0.75,-0.7497,-0.7474,-0.7472,-0.7494,-0.7494,-0.7494,0,0,-0.7984,-0.7949,-0.7931,-0.7875,-0.7846,-0.7813,-0.7803,-0.7769,-0.7744,-0.7716,-0.7674,-0.7649,-0.7605,-0.7564,-0.7544,-0.7542,-0.7488,-0.7499,-0.7499,-0.7496,-0.7472,-0.747,-0.7468,-0.7494,-0.7494,-0.7494,0,0,-0.7969,-0.7939,-0.7909,-0.7881,-0.7837,-0.7812,-0.7805,-0.7757,-0.7739,-0.7697,-0.7675,-0.7645,-0.7584,-0.7554,-0.7531,-0.7506,-0.7491,-0.7495,-0.7494,-0.7472,-0.747,-0.7469,-0.7459,-0.7457,-0.7493,-0.7493,-0.7493,0,-0.7975,-0.7925,-0.7896,-0.7863,-0.7839,-0.7814,-0.7783,-0.7757,-0.7703,-0.7687,-0.7686,-0.7609,-0.7578,-0.7529,-0.7524,-0.7506,-0.7496,-0.7501,-0.7473,-0.7471,-0.7469,-0.746,-0.7457,-0.7494,-0.7493,-0.7493,-0.7493,0,-0.7935,-0.7901,-0.7882,-0.7833,-0.7807,-0.7775,-0.774,-0.7717,-0.7701,-0.7675,-0.7632,-0.7595,-0.7551,-0.7538,-0.7521,-0.7487,-0.7487,-0.748,-0.7478,-0.7468,-0.7459,-0.7455,-0.7495,-0.7494,-0.7494,-0.7494,0,0,-0.7932,-0.7867,-0.7861,-0.7838,-0.7789,-0.7762,-0.7729,-0.7688,-0.7669,-0.7633,-0.7605,-0.7554,-0.7547,-0.7521,-0.75,-0.7481,-0.7464,-0.7476,-0.7475,-0.7475,-0.7424,-0.743,-0.7426,-0.7454,-0.7453,-0.7453,-0.7428,0,-0.791,-0.7851,-0.7824,-0.7777,-0.7745,-0.7721,-0.7693,-0.766,-0.7636,-0.7605,-0.7578,-0.7542,-0.7536,-0.752,-0.75,-0.747,-0.7453,-0.7472,-0.7427,-0.7425,-0.7437,-0.7422,-0.7427,-0.7405,-0.7424,-0.7424,-0.7423,0,-0.7876,-0.7842,-0.7792,-0.7747,-0.7733,-0.7708,-0.7668,-0.7639,-0.7601,-0.7584,-0.7556,-0.7536,-0.7501,-0.7502,-0.7453,-0.7466,-0.7446,-0.7429,-0.7427,-0.7421,-0.7423,-0.7415,-0.7398,-0.7394,-0.7417,-0.7418,-0.7418,0,-0.7878,-0.7819,-0.7782,-0.7764,-0.7711,-0.7694,-0.7671,-0.7633,-0.761,-0.7575,-0.756,-0.7521,-0.7499,-0.7469,-0.7439,-0.7443,-0.7393,-0.7391,-0.7378,-0.7379,-0.7367,-0.7368,-0.7346,-0.7356,-0.7356,-0.7356,-0.7356,0,-0.7856,-0.7826,-0.7783,-0.7759,-0.7726,-0.7695,-0.7662,-0.7638,-0.7605,-0.7576,-0.7553,-0.7527,-0.749,-0.7459,-0.7435,-0.7398,-0.7388,-0.7374,-0.7367,-0.7375,-0.7377,-0.7361,-0.7361,-0.7355,-0.7355,-0.7355,-0.7355,0,-0.7852,-0.7822,-0.778,-0.7734,-0.7721,-0.7698,-0.7659,-0.7635,-0.7611,-0.7575,-0.7565,-0.7526,-0.7488,-0.7456,-0.7406,-0.739,-0.7351,-0.7344,-0.7364,-0.7361,-0.7349,-0.7351,-0.7315,-0.7309,-0.7324,-0.7324,-0.7323,0,-0.784,-0.7817,-0.7769,-0.7748,-0.7726,-0.7694,-0.767,-0.7639,-0.7616,-0.7572,-0.7554,-0.7515,-0.7482,-0.7423,-0.7389,-0.7351,-0.7342,-0.7333,-0.7336,-0.7345,-0.7342,-0.7343,-0.7341,-0.7333,-0.7333,-0.7333,-0.7333,0,-0.7821,-0.7808,-0.7775,-0.7737,-0.7711,-0.7679,-0.7647,-0.7632,-0.7595,-0.757,-0.7532,-0.7506,-0.7456,-0.7418,-0.7376,-0.7352,-0.7336,-0.7332,-0.7327,-0.7334,-0.7346,-0.7339,-0.7364,-0.7333,-0.7333,-0.7333,-0.7333,-0.7333,-0.7812,-0.7791,-0.7754,-0.7718,-0.7692,-0.7663,-0.7639,-0.7611,-0.7579,-0.7537,-0.752,-0.7481,-0.7444,-0.7387,-0.7363,-0.7332,-0.7329,-0.7322,-0.7319,-0.7318,-0.7319,-0.7352,-0.7324,-0.7324,-0.7324,-0.7324,-0.7324,0,-0.7792,-0.7767,-0.7735,-0.7692,-0.7664,-0.7653,-0.7618,-0.7595,-0.7561,-0.7529,-0.7497,-0.7453,-0.7416,-0.7381,-0.7341,-0.7323,-0.7315,-0.7314,-0.7315,-0.7309,-0.7324,-0.7332,-0.7321,-0.7321,-0.7321,-0.7321,-0.7321,-0.7321,-0.7778,-0.7741,-0.7723,-0.7673,-0.7648,-0.7611,-0.7591,-0.7564,-0.7538,-0.7491,-0.746,-0.7438,-0.7404,-0.7362,-0.7327,-0.7318,-0.7304,-0.7305,-0.7294,-0.7308,-0.7308,-0.7309,-0.7316,-0.7303,-0.7303,-0.7282,-0.7281,-0.7281]},{"header":{"parameterUnit":"m.s-1","parameterCategory":1,"la1":30.2991,"la2":30.254,"lo1":-89.0895,"lo2":-89.0444,"dy":0.0017,"dx":0.0017,"nx":28,"ny":28,"refTime":"2024-05-24T21:00:00:Z","depth":0,"parameterNumber":3,"parameterNumberName":"V-component_of_WINDS"},"data":[0,0,0,0,0,0,0,0,0,0,0,0,0,0,0,0,0,0,0,0,0,0,0,0,0,0,0,0,0,0,0,0,0,0,0,0,0,0,0,0,0,0,0,0,0,0,0,0,0,0,0,0,0,0,0,0,0,0,5.1406,5.1406,0,5.1393,5.1393,5.1392,5.1319,5.1317,5.1316,5.1314,5.13,5.1301,5.1303,0,0,0,0,0,0,0,0,0,0,0,0,0,5.137,5.1371,5.1406,5.1406,5.1406,5.1393,5.1393,5.1392,5.1319,5.1317,5.1315,5.1313,5.13,5.1301,5.1303,0,0,0,0,0,0,0,0,0,0,0,0,0,5.1374,5.1371,5.1406,5.1368,5.1364,5.1393,5.1393,5.1392,5.132,5.1317,5.1315,5.1312,5.1299,5.1301,5.1303,5.1367,0,0,5.1309,5.1309,0,0,0,0,0,0,0,0,5.1374,5.1375,5.1374,5.1371,5.1367,5.1355,5.1374,5.1384,5.1321,5.1337,5.1314,5.1311,5.132,5.132,5.1324,5.1366,5.1366,5.1309,5.131,5.1311,5.1311,0,0,0,0,0,0,0,5.1374,5.1376,5.1401,5.1374,5.137,5.1352,5.1349,5.1376,5.1344,5.1335,5.133,5.1329,5.1318,5.1322,5.1323,5.1365,5.1309,5.131,5.1312,5.1312,5.1461,5.1464,0,0,0,0,0,0,5.1379,5.1376,5.1401,5.1401,5.1364,5.1355,5.1352,5.1361,5.1343,5.1338,5.1332,5.1326,5.132,5.1321,5.1322,5.1397,5.1311,5.1312,5.1314,5.1459,5.1462,5.1465,0,0,0,0,0,0,5.1378,5.1382,5.1402,5.1387,5.1388,5.1358,5.1369,5.1363,5.1366,5.134,5.1334,5.1342,5.1318,5.1319,5.1357,5.1395,5.1313,5.1315,5.1455,5.146,5.1463,5.1546,0,0,0,0,0,0,5.1377,5.1382,5.1406,5.1388,5.1389,5.1437,5.1372,5.1364,5.137,5.1362,5.1348,5.1343,5.1316,5.1354,5.1359,5.1396,5.1317,5.1452,5.1457,5.1462,5.154,5.1553,5.1564,0,0,0,0,0,5.1376,5.1429,5.1407,5.1411,5.1418,5.1439,5.144,5.1408,5.1373,5.1397,5.1381,5.1344,5.139,5.1359,5.1363,5.1402,5.1449,5.1456,5.1462,5.1534,5.155,5.1563,0,0,0,0,0,0,5.1452,5.1426,5.1402,5.145,5.1448,5.1427,5.1456,5.1425,5.1432,5.1425,5.1384,5.1382,5.1425,5.1417,5.1382,5.1463,5.1413,5.1421,5.1467,5.1482,5.1494,5.1495,5.1318,0,0,0,0,0,5.1474,5.1494,5.147,5.1515,5.1515,5.1486,5.1494,5.147,5.1465,5.1463,5.1449,5.1447,5.1461,5.1471,5.1482,5.1538,5.1534,5.1567,5.1579,5.1589,5.1596,5.1626,5.1641,5.1486,5.1486,5.1486,0,0,5.1521,5.1509,5.1523,5.153,5.1525,5.1546,5.1485,5.151,5.1525,5.1467,5.1502,5.1492,5.1486,5.1533,5.1553,5.1528,5.1638,5.1597,5.1605,5.1607,5.1634,5.1649,5.1662,5.149,5.1489,5.1489,0,0,5.1616,5.1609,5.1646,5.1643,5.1636,5.1617,5.1626,5.161,5.1601,5.1635,5.1593,5.161,5.1635,5.1633,5.1635,5.1732,5.1698,5.1736,5.1799,5.1829,5.1841,5.1851,5.1886,5.1899,5.1743,5.1744,5.1744,0,5.1674,5.1704,5.1669,5.1697,5.1702,5.165,5.1688,5.1687,5.1684,5.1689,5.166,5.1691,5.1683,5.173,5.1754,5.1757,5.1767,5.1738,5.1842,5.1852,5.1861,5.1895,5.1908,5.1748,5.1748,5.1747,5.1747,0,5.1777,5.1798,5.1829,5.1829,5.1837,5.187,5.184,5.1852,5.1828,5.1812,5.1848,5.1837,5.1846,5.1855,5.1831,5.1899,5.1883,5.1849,5.1798,5.1882,5.1912,5.1924,5.1755,5.1754,5.1752,5.1751,0,0,5.1918,5.1899,5.1911,5.1911,5.1901,5.1917,5.1948,5.1957,5.1969,5.1969,5.1994,5.2017,5.1986,5.1988,5.1964,5.199,5.2068,5.1952,5.1951,5.1975,5.2143,5.2169,5.2185,5.2046,5.2048,5.205,5.2144,0,5.201,5.2062,5.2032,5.2088,5.2108,5.206,5.2087,5.2084,5.207,5.2085,5.207,5.2087,5.2044,5.2045,5.2069,5.2053,5.2101,5.2046,5.2069,5.207,5.2073,5.22,5.2228,5.2317,5.2155,5.2157,5.2159,0,5.2124,5.213,5.2189,5.2176,5.2183,5.2208,5.2214,5.2229,5.2225,5.2213,5.2217,5.2186,5.2216,5.2166,5.2207,5.217,5.2178,5.2172,5.2174,5.2175,5.212,5.2206,5.2345,5.2359,5.2177,5.2176,5.2174,0,5.2222,5.2245,5.2283,5.2284,5.227,5.2289,5.2284,5.2277,5.2285,5.2291,5.2295,5.2305,5.231,5.2318,5.229,5.2256,5.2336,5.2283,5.2327,5.2328,5.2346,5.2345,5.2489,5.235,5.235,5.235,5.235,0,5.2328,5.2366,5.2328,5.2351,5.2392,5.2358,5.24,5.239,5.2384,5.2405,5.2364,5.2385,5.2348,5.2365,5.2344,5.2381,5.2384,5.2375,5.2369,5.2379,5.2381,5.2384,5.2377,5.2353,5.2353,5.2352,5.2351,0,5.2445,5.2421,5.2459,5.2443,5.244,5.2471,5.2457,5.2479,5.2462,5.249,5.2494,5.2469,5.2487,5.246,5.2475,5.2461,5.2513,5.2498,5.2515,5.2511,5.2557,5.2553,5.2708,5.2727,5.2576,5.2577,5.2579,0,5.2514,5.2542,5.253,5.2541,5.2539,5.2557,5.2565,5.2533,5.2543,5.2541,5.2563,5.2578,5.2588,5.2619,5.2602,5.2613,5.2598,5.2652,5.2599,5.2609,5.26,5.2599,5.2602,5.2663,5.2664,5.2666,5.2667,0,5.264,5.2627,5.264,5.265,5.2661,5.2667,5.267,5.2682,5.2647,5.2661,5.2679,5.2687,5.2703,5.2719,5.2726,5.2721,5.2689,5.2684,5.2695,5.2705,5.2715,5.2711,5.2545,5.268,5.2679,5.2678,5.2677,5.2677,5.2736,5.2759,5.2754,5.2771,5.277,5.2774,5.2793,5.278,5.2795,5.2805,5.2785,5.2809,5.2805,5.2812,5.281,5.2829,5.2805,5.2821,5.2825,5.283,5.2837,5.2712,5.283,5.2829,5.2829,5.2829,5.2828,0,5.286,5.2855,5.2871,5.2877,5.289,5.2859,5.2861,5.2874,5.2896,5.2895,5.2906,5.2928,5.2943,5.2927,5.2939,5.2957,5.2943,5.2962,5.296,5.296,5.2857,5.2847,5.2973,5.2973,5.2973,5.2973,5.2973,5.2973,5.2926,5.2965,5.2952,5.2989,5.2983,5.3007,5.3011,5.3015,5.3014,5.304,5.3053,5.3043,5.3036,5.3048,5.3061,5.3056,5.3062,5.3087,5.3077,5.2981,5.2967,5.2953,5.2943,5.3088,5.3088,5.3178,5.3179,5.318]}]]